7 * 24
多渠道服务支持
STARLINK-32933 是 SpaceX Starlink 卫星互联网项目中的一颗低轨通信卫星。它属于 Starlink 群体部署的一部分,旨在为全球用户提供高速互联网服务。该卫星运行在约 550 公里的近地轨道上,采用可再生推进系统,具备自主避障能力。作为 Starlink 计划的重要组成部分,它有助于扩大网络覆盖范围,提升连接质量,并支持偏远地区的互联网接入。
美国
(US)
| 数据来源 | 国际轨道数据 |
| 星历时间: | 2025-11-07T14:20:54+0800 16小时前 查看轨道信息 |
| 半长轴: | 6950.148km |
| 偏心率: | 0.0003314 |
| 轨道倾角: | 70.000° |
| 近地点辐角 | 271.498° |
| 升交点赤经 | 303.139° |
| 平近点角 | 88.580° |
| 近地点: | 569.709km |
| 远地点: | 574.317km |
| 周期: | 96.106分钟 |
| 每日圈数: | 14.983446 |